Location: Newark
(58.8333°N, 23.5833°E)
Time: 02:34:58
(UTC+00:00)

Explorer 7 - Pass Details

Date: 21 November 2019
Orbit: 485 x 680 km, 50.3° (Epoch: 10 December)

Event Time Altitude Azimuth Distance (km) Brightness Sun altitude
Rises 00:57:21 0° 253° (WSW) 2,880 - -40.9°
Reaches altitude 10° 00:59:59 10° 241° (WSW) 1,938 - -40.6°
Maximum altitude 01:03:40 26° 185° (S) 1,143 - -40.2°
Drops below altitude 10° 01:07:10 10° 128° (SE) 1,833 - -39.8°
Sets 01:09:35 0° 116° (ESE) 2,690 - -39.6°
